Αρχική σελίδα
METAR-TAF:

METAR-TAF

Αεροδρόμια :

Evelyn Sharp Field

Ord, Νεμπράσκα, Ηνωμένες Πολιτείες Αμερικής

γεωγραφικό πλάτος: 41-37-27N, γεωγραφικό μήκος: 098-57-09W, υψόμετρο: 631 μ

Παρών καιρός

Η αναφορά έγινε 1 ώρα και 5 λεπτά πριν, στις 17:53 UTC
Άνεμος 10 kt από ΝΔ
Θερμοκρασία 3°C
Υγρασία 56%
Πίεση 1022 hPa
Ορατότητα: 16.1 χλμ
Καθαρός ουρανός

METAR: KODX 181753Z AUTO 22010KT 10SM CLR 03/M05 A3018 RMK AO2 SLP251 T00281050 10028 21150 58025

Χρόνος: 12:58 (18:58 UTC)


TAF: λείπει

Μετεωρολογικές αναφορές και προγνώσεις για περισσότερα από 4000 αεροδρόμια (δελτία METAR και TAF).

Οι διαθέσιμοι σταθμοί απεικονίζονται στο χάρτη με κίτρινες και κόκκινες κουκκίδες.

Μετακινήστε το ποντίκι πάνω από τις κουκκίδες για να δείτε το όνομα του σταθμού.

Στη συνέχεια, κάντε κλικ για να δείτε τις μετεωρολογικές αναφορές και τις προγνώσεις καιρού.

Για να αλλάξετε το χάρτη: κάντε κλικ στα πράσινα κουμπιά με τον μαύρο σταυρό για να ζουμάρετε, στο πράσινο κουμπί με την παύλα για να αφαιρέσετε το ζουμ ή στα πράσινα βέλη για να αντιπαραβάλλετε χάρτες.


METAR-TAF: